Twin Falls, ID

7:14 PM MST on February 24, 2017 (GMT -0700)
Joslin Field-Magic Valley Regional

Weather History for KTWF - October, 2012

Change the Weather History Date:

Tuesday, October 30, 2012

  Actual Average Record
Temperature  
Mean Temperature 55 °F -  
Max Temperature 71 °F 57 °F 74 °F (2014)
Min Temperature 39 °F 33 °F 15 °F (2002)
Degree Days  
Heating Degree Days 10 20  
Month to date heating degree days 410 437  
Since 1 July heating degree days 426 598  
Cooling Degree Days 0 0  
Month to date cooling degree days 5 0  
Year to date cooling degree days 970 678  
Growing Degree Days 5 (Base 50)    
Moisture  
Dew Point 32 °F    
Average Humidity 48    
Maximum Humidity 76    
Minimum Humidity 20    
Precipitation  
Precipitation 0.00 in 0.03 in 0.59 in (1982)
Month to date precipitation 0.46 0.77  
Year to date precipitation 7.38 8.22  
Sea Level Pressure  
Sea Level Pressure 30.03 in    
Wind  
Wind Speed 6 mph (SSE)    
Max Wind Speed 15 mph    
Max Gust Speed 18 mph    
Visibility 10 miles    
Events      
T = Trace of Precipitation, MM = Missing Value Source: NWS Daily Summary

Daily Weather History Graph

Daily Weather History Graph

Search for Another Location

Airport or City:

Trip Planner

Search our weather history database for the weather conditions in past years. The results will help you decide how hot, cold, wet, or windy it might be!

Date:

Astronomy

Oct. 30, 2012 Rise Set
Actual Time 8:09 AM MDT 6:32 PM MDT
Civil Twilight 7:40 AM MDT 7:01 PM MDT
Nautical Twilight 7:07 AM MDT 7:35 PM MDT
Astronomical Twilight 6:34 AM MDT 8:07 PM MDT
Moon 7:03 PM MDT (10/30) 9:01 AM MDT (10/30)
Length of Visible Light 11h 21m
Length of Day
10h 23m
Full, 99% of the Moon is Illuminated
Oct 30
Full
Nov 6
Last Quarter
Nov 13
New
Nov 20
First Quarter
Nov 28
Full

Hourly Weather History & Observations

Time (MDT) Temp. Windchill Dew Point Humidity Pressure Visibility Wind Dir Wind Speed Gust Speed Precip Events Conditions
1:53 AM 46.9 °F - 34.0 °F 61% 30.06 in 10.0 mi South 9.2 mph - N/A   Clear
2:53 AM 46.0 °F 41.0 °F 34.0 °F 63% 30.06 in 10.0 mi South 10.4 mph - N/A   Clear
3:53 AM 46.9 °F - 34.0 °F 61% 30.06 in 10.0 mi South 10.4 mph - N/A   Clear
4:53 AM 46.0 °F 41.0 °F 34.0 °F 63% 30.04 in 10.0 mi South 10.4 mph - N/A   Clear
5:53 AM 45.0 °F 40.1 °F 33.1 °F 63% 30.05 in 10.0 mi SSE 9.2 mph - N/A   Clear
6:53 AM 44.1 °F 40.8 °F 33.1 °F 65% 30.08 in 10.0 mi SSE 5.8 mph - N/A   Clear
7:53 AM 39.0 °F - 32.0 °F 76% 30.09 in 10.0 mi Calm Calm - N/A   Clear
8:53 AM 50.0 °F - 33.1 °F 52% 30.08 in 10.0 mi Calm Calm - N/A   Clear
9:53 AM 55.9 °F - 34.0 °F 44% 30.06 in 10.0 mi Calm Calm - N/A   Clear
10:53 AM 63.0 °F - 30.9 °F 30% 30.04 in 10.0 mi SSE 5.8 mph - N/A   Clear
12:53 PM 66.0 °F - 39.0 °F 37% 30.03 in 10.0 mi North 5.8 mph - N/A   Clear
1:53 PM 69.1 °F - 37.0 °F 31% 30.01 in 10.0 mi NNW 5.8 mph - N/A   Clear
2:53 PM 71.1 °F - 30.9 °F 23% 29.99 in 10.0 mi NNW 5.8 mph - N/A   Clear
3:53 PM 71.1 °F - 28.9 °F 21% 29.99 in 10.0 mi NNW 6.9 mph - N/A   Clear
4:53 PM 70.0 °F - 28.0 °F 21% 29.99 in 10.0 mi NNE 3.5 mph - N/A   Clear
6:53 PM 51.1 °F - 32.0 °F 48% 30.02 in 10.0 mi East 4.6 mph - N/A   Clear
7:53 PM 48.9 °F - 32.0 °F 52% 30.04 in 10.0 mi ESE 8.1 mph - N/A   Clear
8:53 PM 48.0 °F - 30.9 °F 52% 30.01 in 10.0 mi ESE 6.9 mph - N/A   Clear
9:53 PM 48.0 °F - 30.0 °F 50% 29.99 in 10.0 mi South 8.1 mph - N/A   Clear
10:53 PM 54.0 °F - 27.0 °F 35% 29.96 in 10.0 mi South 6.9 mph - N/A   Clear
11:53 PM 53.1 °F - 26.1 °F 35% 29.95 in 10.0 mi SSE 5.8 mph - N/A   Clear